TimeCST,TemperatureF,Dew PointF,Humidity,Sea Level PressureIn,VisibilityMPH,Wind Direction,Wind SpeedMPH,Gust SpeedMPH,PrecipitationIn,Events,Conditions,WindDirDegrees,DateUTC
12:03 AM,32.0,30.2,93,29.99,2.0,East,8.1,-,0.00,Snow,Light Snow,100,2012-12-09 06:03:00
12:24 AM,32.0,30.2,93,29.98,3.0,East,9.2,-,0.00,Snow,Light Snow,100,2012-12-09 06:24:00
12:43 AM,32.0,30.2,93,29.97,6.0,ESE,9.2,-,0.00,,Overcast,120,2012-12-09 06:43:00
12:54 AM,32.0,30.2,93,29.96,7.0,ESE,12.7,-,N/A,,Overcast,110,2012-12-09 06:54:00
1:09 AM,32.0,30.2,93,29.95,7.0,ESE,9.2,-,N/A,,Overcast,110,2012-12-09 07:09:00
1:54 AM,33.1,30.9,92,29.96,7.0,ESE,12.7,-,N/A,,Overcast,120,2012-12-09 07:54:00
2:54 AM,34.0,32.0,92,29.96,7.0,ESE,12.7,-,N/A,,Overcast,120,2012-12-09 08:54:00
3:54 AM,34.0,32.0,92,29.96,7.0,ESE,11.5,-,N/A,,Overcast,110,2012-12-09 09:54:00
4:54 AM,34.0,32.0,92,29.96,7.0,East,8.1,-,N/A,,Overcast,100,2012-12-09 10:54:00
5:25 AM,33.8,32.0,93,29.93,2.5,East,8.1,-,0.01,Snow,Light Snow,90,2012-12-09 11:25:00
5:32 AM,33.8,32.0,93,29.92,2.5,East,9.2,-,0.01,Snow,Light Snow,90,2012-12-09 11:32:00
5:39 AM,33.8,32.0,93,29.93,2.0,East,8.1,-,0.02,Snow,Light Snow,90,2012-12-09 11:39:00
5:46 AM,33.8,32.0,93,29.92,1.8,East,6.9,-,0.02,Snow,Light Snow,90,2012-12-09 11:46:00
5:54 AM,32.0,32.0,100,29.95,1.5,East,6.9,-,0.02,Snow,Light Snow,90,2012-12-09 11:54:00
6:11 AM,32.0,32.0,100,29.92,1.2,East,5.8,-,N/A,Snow,Light Snow,100,2012-12-09 12:11:00
6:39 AM,32.0,32.0,100,29.92,0.8,East,6.9,-,0.04,Snow,Light Snow,100,2012-12-09 12:39:00
6:54 AM,32.0,32.0,100,29.94,1.0,East,6.9,-,0.05,Snow,Light Snow,100,2012-12-09 12:54:00
7:54 AM,32.0,32.0,100,29.93,1.2,East,6.9,-,0.02,Snow,Light Snow,100,2012-12-09 13:54:00
8:54 AM,32.0,30.9,96,29.92,0.8,East,8.1,-,0.02,Snow,Light Snow,100,2012-12-09 14:54:00
9:41 AM,32.0,32.0,100,29.87,1.2,East,6.9,-,0.03,Snow,Light Snow,100,2012-12-09 15:41:00
9:54 AM,32.0,32.0,100,29.89,2.0,East,8.1,-,0.03,Snow,Light Snow,100,2012-12-09 15:54:00
10:10 AM,33.8,32.0,93,29.87,3.0,East,8.1,-,0.00,,Overcast,100,2012-12-09 16:10:00
10:44 AM,33.8,32.0,93,29.85,5.0,East,8.1,-,0.00,,Overcast,100,2012-12-09 16:44:00
10:54 AM,33.1,32.0,96,29.87,5.0,East,9.2,-,0.00,,Overcast,100,2012-12-09 16:54:00
11:54 AM,34.0,32.0,92,29.85,7.0,ESE,6.9,-,0.00,,Overcast,120,2012-12-09 17:54:00
12:28 PM,33.8,33.8,100,29.81,2.0,Calm,Calm,-,0.00,Snow,Light Snow,0,2012-12-09 18:28:00
12:50 PM,33.8,33.8,100,29.80,1.5,SE,4.6,-,0.01,Snow,Light Snow,140,2012-12-09 18:50:00
12:54 PM,33.1,32.0,96,29.82,1.5,SE,3.5,-,0.01,Snow,Light Snow,130,2012-12-09 18:54:00
1:54 PM,33.1,32.0,96,29.82,1.2,Calm,Calm,-,0.02,Snow,Light Snow,0,2012-12-09 19:54:00
2:03 PM,33.8,32.0,93,29.79,2.0,Calm,Calm,-,0.01,Snow,Light Snow,0,2012-12-09 20:03:00
2:29 PM,33.8,33.8,100,29.77,3.0,Calm,Calm,-,0.01,,Overcast,0,2012-12-09 20:29:00
2:42 PM,33.8,32.0,93,29.78,5.0,Calm,Calm,-,0.01,,Overcast,0,2012-12-09 20:42:00
2:54 PM,33.1,32.0,96,29.82,6.0,Calm,Calm,-,0.01,,Overcast,0,2012-12-09 20:54:00
3:11 PM,33.8,32.0,93,29.79,6.0,Calm,Calm,-,N/A,,Overcast,0,2012-12-09 21:11:00
3:39 PM,33.8,33.8,100,29.79,1.8,SW,6.9,-,N/A,,Overcast,220,2012-12-09 21:39:00
3:54 PM,34.0,33.1,96,29.82,1.8,SW,6.9,-,N/A,,Overcast,220,2012-12-09 21:54:00
4:01 PM,33.8,33.8,100,29.79,2.5,SW,6.9,-,N/A,,Overcast,220,2012-12-09 22:01:00
4:12 PM,33.8,33.8,100,29.79,2.5,SW,5.8,-,N/A,,Overcast,230,2012-12-09 22:12:00
4:24 PM,33.8,33.8,100,29.78,1.8,WSW,5.8,-,N/A,,Overcast,240,2012-12-09 22:24:00
4:31 PM,33.8,33.8,100,29.79,3.0,West,19.6,24.2,N/A,,Overcast,260,2012-12-09 22:31:00
4:54 PM,30.9,30.0,96,29.83,5.0,West,15.0,-,N/A,,Overcast,280,2012-12-09 22:54:00
5:34 PM,28.4,26.6,93,29.81,10.0,West,13.8,21.9,N/A,,Overcast,270,2012-12-09 23:34:00
5:54 PM,28.0,25.0,88,29.84,10.0,West,15.0,24.2,N/A,,Overcast,280,2012-12-09 23:54:00
6:54 PM,26.1,23.0,88,29.84,10.0,West,15.0,-,N/A,,Overcast,280,2012-12-10 00:54:00
7:54 PM,25.0,21.9,88,29.85,10.0,West,15.0,-,N/A,,Overcast,260,2012-12-10 01:54:00
8:54 PM,26.1,23.0,88,29.84,10.0,West,9.2,-,N/A,,Overcast,270,2012-12-10 02:54:00
9:54 PM,27.0,24.1,89,29.84,10.0,West,10.4,17.3,N/A,,Overcast,280,2012-12-10 03:54:00
10:54 PM,26.1,23.0,88,29.84,10.0,West,13.8,18.4,N/A,,Overcast,280,2012-12-10 04:54:00
11:54 PM,24.1,21.0,88,29.85,10.0,West,16.1,21.9,N/A,,Overcast,280,2012-12-10 05:54:00